Regional Weather Roundup
Issued by NWS

Home | Current Version | Previous Version | Text Only | Print | Product List | Glossary Off
Versions: 1 2 3 4 5 6 7 8 9 10 11 12 13 14 15 16 17 18 19 20 21 22 23 24 25 26 27 28 29 30 31 32 33 34 35 36 37 38 39 40 41 42 43 44 45 46 47 48 49 50

000
ASUS45 KBOU 221707
RWRCO

WEATHER ROUNDUP FOR COLORADO
NATIONAL WEATHER SERVICE DENVER/BOULDER CO
1100 AM MDT FRI AUG 22 2014

NOTE: "FAIR" INDICATES FEW OR NO CLOUDS BELOW 12000 FEET WITH NO
SIGNIFICANT WEATHER AND/OR OBSTRUCTIONS TO VISIBILITY.

COZ001>005-013-030-031-221800-
...NORTHWEST COLORADO...

CITY           SKY/WX    TMP DP  RH WIND       PRES   REMARKS
CRAIG          MOSUNNY   73  48  41 NE6       30.16F
HAYDEN         MOSUNNY   68  45  42 E10       30.18F
MEEKER         MOSUNNY   71  47  42 N3        30.16F
MOUNT WERNER   NOT AVBL
STEAMBOAT SPGS PTSUNNY   66  46  47 SE8       30.20F
WALDEN         PTSUNNY   57  43  58 SE10      30.31S
$$

COZ006>008-011-221800-
...WEST CENTRAL VALLEYS...

CITY           SKY/WX    TMP DP  RH WIND       PRES   REMARKS
GRAND JUNCTION PTSUNNY   73  49  42 SE14      30.10F
MONTROSE       CLOUDY    65  55  70 CALM      30.20F
EAGLE          CLOUDY    59  54  82 CALM      30.26F
RIFLE          PTSUNNY   69  49  48 E8        30.15F
DELTA          RAIN      70  55  57 E6        30.16S
NUCLA          CLOUDY    68  50  52 CALM      30.23S
$$

COZ017>023-064>068-221800-
...SOUTHWEST COLORADO...

CITY           SKY/WX    TMP DP  RH WIND       PRES   REMARKS
DURANGO        CLOUDY    62  53  72 E6        30.28R
CORTEZ         SUNNY     68  54  60 SE7       30.22S
PAGOSA SPRINGS CLOUDY    56  48  75 CALM      30.35F
TELLURIDE      CLOUDY    57  46  67 SE13G18   30.36S
WOLF CREEK PAS NOT AVBL
$$

COZ009-010-012-014-032>034-037-058>063-221800-
...CENTRAL COLORADO...

CITY           SKY/WX    TMP DP  RH WIND       PRES   REMARKS
ASPEN          CLOUDY    58  50  75 N5        30.28F
BUENA VISTA    PTSUNNY   64  42  44 CALM      30.31S
COPPER MTN     PTSUNNY   54  43  66 SE13      30.54F
BERTHOUD PASS  CLOUDY    39  37  93 MISG      30.59S
COTTONWOOD PAS PTSUNNY   61  41  48 SE8       30.43S
GUNNISON       CLOUDY    55  46  71 CALM      30.34S
KREMMLING      PTSUNNY   59  50  72 CALM      30.30F
LEADVILLE      CLOUDY    55  39  54 S9        30.40F
MONARCH PASS   RAIN      46  36  66 S9G22     30.66S
SALIDA         PTSUNNY   65  46  50 SE5       30.37S
SUNLIGHT       PTSUNNY   52  48  87 CALM      30.47S
WILKERSON PASS NOT AVBL
$$

COZ069>075-221800-
...SAN LUIS VALLEY/SANGRE DE CRISTO MOUNTAINS...

CITY           SKY/WX    TMP DP  RH WIND       PRES   REMARKS
ALAMOSA        LGT RAIN  55  52  89 E5        30.34R
LA VETA PASS   NOT AVBL
SAGUACHE       CLOUDY    63  41  45 S3        30.34R
$$

COZ035-036-038>040-221800-
...NORTHERN COLORADO FRONT RANGE...

CITY           SKY/WX    TMP DP  RH WIND       PRES   REMARKS
DENVER INTL AP CLOUDY    69  56  62 S5        30.17F
DMNS CITY PARK   N/A     71  53  52 S3        30.17F
AURORA         CLOUDY    67  55  64 W2        30.20F
FRONT RANGE AP NOT AVBL
ERIE MUNI ARPT CLOUDY    70  58  66 CALM      30.16F
BOULDER MUN AP CLOUDY    68  52  56 CALM      30.17S
CENTENNIAL     CLOUDY    67  53  61 CALM      30.21R
BROOMFIELD     CLOUDY    68  55  64 CALM      30.20S
FORT COLLINS   CLOUDY    72  55  56 CALM      30.15F
LONGMONT       CLOUDY    73  57  58 CALM      30.17S
$$

COZ041-046-047-076>085-087-088-221800-
...PIKES PEAK/PALMER DIVIDE AND SOUTHERN FOOTHILLS...

CITY           SKY/WX    TMP DP  RH WIND       PRES   REMARKS
COLO. SPRINGS  CLOUDY    72  52  49 CALM      30.22S
A. F. ACADEMY  CLOUDY    68  52  56 N6        30.24F
ELLICOTT       CLOUDY    71  55  56 E8        30.20R
FALCON         CLOUDY    69  53  57 NE8       30.26F
FORT CARSON    CLOUDY    73  54  49 NE6       30.19F
LIMON          PTSUNNY   74  57  55 NE15      30.17R
MONUMENT HILL  CLOUDY    61  52  72 CALM      30.27S
TRINIDAD       PTSUNNY   75  53  46 N9        30.17F
$$

COZ042>045-048>051-090-091-221800-
...NORTHEAST COLORADO...

CITY           SKY/WX    TMP DP  RH WIND       PRES   REMARKS
GREELEY ARPT   CLOUDY    70  55  60 CALM      30.15F
AKRON          CLOUDY    71  57  61 N12       30.13R
BURLINGTON     MOSUNNY   79  56  45 NE16G25   30.09S
WRAY             N/A     76  58  53 N14       30.08R
STERLING       TSTM      64  64 100 N8        30.11F
HOLYOKE        NOT AVBL
FORT MORGAN    CLOUDY    67  58  73 CALM      30.14S
$$

COZ086-089-092>099-221800-
...SOUTHEAST COLORADO...

CITY           SKY/WX    TMP DP  RH WIND       PRES   REMARKS
PUEBLO         CLOUDY    77  54  44 CALM      30.11F
LA JUNTA       PTSUNNY   81  58  45 NE6       30.07R
LAMAR          MOSUNNY   82  60  47 E9        30.01R
SPRINGFIELD      N/A     87  55  33 N7        30.05S
$$


USA.gov is the U.S. government's official web portal to all federal, state and local government web resources and services.